Home   Weather   Minamisōma   Past weeks

Flag for Japan Past Weather in Minamisōma, Japan — Yesterday and Last 2 Weeks

Now
43 °F

Light rain. Partly sunny.


Feels Like: 36 °F
Forecast: 31 / 38 °F
Wind: 13 mph from Southwest

Location: Sendai Airport

Current Time: Feb 20, 2017 at 1:04:38 pm

Latest Report: Feb 20, 2017 at 12:00 pm


Visibility: N/A

Pressure: 29.56 "Hg

Humidity: 46%

Dew Point: 23 °F

Location of MinamisōmaLocation

Past Weather in Minamisōma — Graph

°F

Minamisōma Temperature Yesterday

Maximum temperature yesterday: 41 °F (at 12:41 pm)
Minimum temperature yesterday: 32 °F (at 5:43 am)
Average temperature yesterday: 36 °F

High & Low Weather Summary for the Past Weeks

 TemperatureHumidityPressure
High61 °F (Feb 17, 1:00 pm)100% (Feb 9, 6:00 pm)30.24 "Hg (Feb 9, 6:00 pm)
Low25 °F (Feb 14, 6:00 am)24% (Feb 18, 2:00 pm)29.30 "Hg (Feb 6, 2:02 pm)
Average40 °F53%29.84 "Hg
* Reported Feb 5 12:00 pm — Feb 20 12:00 pm, Minamisōma, Weather by CustomWeather, © 2017

Note: Actual official high and low records may vary slightly from our data, if they occured in-between our weather recording intervals... More about our weather records

Advertising

Minamisōma Weather History for the Previous 24 Hours

Scroll right to see more
 ConditionsComfort  
Time TempWeatherWind HumidityBarometerVisibility
12:00 pm
Mon, Feb 20
43 °FLight rain. Partly sunny.13 mph46%29.56 "HgN/A
11:00 am43 °FLight rain. Broken clouds.12 mph39%29.62 "HgN/A
10:00 am41 °FBroken clouds.8 mph42%29.68 "HgN/A
9:00 am39 °FBroken clouds.8 mph45%29.71 "HgN/A
8:00 am32 °FBroken clouds.1 mph64%29.77 "HgN/A
7:00 am28 °FPartly sunny.3 mph74%29.80 "HgN/A
6:00 am28 °FPassing clouds.No wind69%29.83 "HgN/A
9:00 pm
Sun, Feb 19
32 °FPassing clouds.3 mph47%29.98 "HgN/A
8:00 pm32 °FPassing clouds.5 mph51%29.98 "HgN/A
7:00 pm36 °FPassing clouds.3 mph38%30.01 "HgN/A
6:00 pm36 °FPassing clouds.3 mph38%30.01 "HgN/A
5:37 pm37 °FPassing clouds.7 mph35%30.01 "HgN/A
5:00 pm39 °FScattered clouds.18 mph30%29.98 "HgN/A
4:00 pm41 °FPassing clouds.23 mph26%29.95 "HgN/A
3:00 pm39 °FScattered clouds.10 mph26%29.92 "HgN/A
2:33 pm41 °FScattered clouds.13 mph26%29.92 "HgN/A
2:18 pm41 °FScattered clouds.13 mph28%29.92 "HgN/A
1:10 pm37 °FScattered clouds.21 mph35%29.92 "HgN/A
Weather by CustomWeather, © 2017

See weather overviewHow to use our weather pages